TimeHST,TemperatureF,Dew PointF,Humidity,Sea Level PressureIn,VisibilityMPH,Wind Direction,Wind SpeedMPH,Gust SpeedMPH,PrecipitationIn,Events,Conditions,WindDirDegrees,DateUTC
12:53 AM,72.0,64.9,78,29.99,10.0,ENE,12.7,-,N/A,,Scattered Clouds,70,2013-01-09 10:53:00
1:53 AM,72.0,64.9,78,29.98,10.0,ENE,10.4,-,N/A,,Scattered Clouds,60,2013-01-09 11:53:00
2:53 AM,72.0,64.9,78,29.96,10.0,ENE,6.9,-,N/A,,Scattered Clouds,70,2013-01-09 12:53:00
3:53 AM,72.0,64.9,78,29.96,10.0,NE,10.4,-,N/A,,Mostly Cloudy,50,2013-01-09 13:53:00
4:53 AM,72.0,66.0,81,29.95,10.0,NE,6.9,-,0.00,,Scattered Clouds,50,2013-01-09 14:53:00
5:53 AM,72.0,64.9,78,29.96,10.0,NE,6.9,-,0.00,,Scattered Clouds,50,2013-01-09 15:53:00
6:53 AM,72.0,66.0,81,29.97,10.0,ENE,8.1,-,0.00,,Mostly Cloudy,70,2013-01-09 16:53:00
7:53 AM,73.0,66.0,79,29.99,10.0,ENE,8.1,-,0.00,,Mostly Cloudy,60,2013-01-09 17:53:00
8:53 AM,75.0,66.0,73,30.01,10.0,ENE,11.5,-,0.00,,Scattered Clouds,60,2013-01-09 18:53:00
9:53 AM,78.1,64.9,64,30.01,10.0,NE,12.7,-,N/A,,Scattered Clouds,50,2013-01-09 19:53:00
10:53 AM,78.1,66.0,66,29.99,10.0,ENE,16.1,23.0,0.00,,Scattered Clouds,60,2013-01-09 20:53:00
11:53 AM,81.0,64.0,56,29.96,10.0,ENE,18.4,24.2,N/A,,Scattered Clouds,60,2013-01-09 21:53:00
12:53 PM,82.0,64.9,56,29.93,10.0,NE,17.3,24.2,N/A,,Scattered Clouds,50,2013-01-09 22:53:00
1:53 PM,81.0,64.0,56,29.91,10.0,ENE,15.0,29.9,N/A,,Scattered Clouds,60,2013-01-09 23:53:00
2:53 PM,81.0,64.0,56,29.91,10.0,ENE,13.8,-,N/A,,Scattered Clouds,60,2013-01-10 00:53:00
3:53 PM,79.0,64.0,60,29.91,10.0,ENE,15.0,26.5,N/A,,Mostly Cloudy,60,2013-01-10 01:53:00
4:53 PM,77.0,64.9,66,29.93,10.0,NE,16.1,24.2,N/A,,Scattered Clouds,50,2013-01-10 02:53:00
5:53 PM,75.9,64.0,67,29.94,10.0,ENE,18.4,24.2,N/A,,Scattered Clouds,60,2013-01-10 03:53:00
6:53 PM,73.9,64.9,73,29.95,10.0,ENE,12.7,-,N/A,,Scattered Clouds,60,2013-01-10 04:53:00
7:53 PM,75.0,64.9,71,29.96,10.0,ENE,10.4,20.7,N/A,,Scattered Clouds,60,2013-01-10 05:53:00
8:53 PM,75.0,64.0,69,29.98,10.0,ENE,16.1,19.6,N/A,,Partly Cloudy,60,2013-01-10 06:53:00
9:53 PM,73.9,64.0,71,29.99,10.0,ENE,12.7,-,N/A,,Partly Cloudy,60,2013-01-10 07:53:00
10:53 PM,73.0,64.9,76,29.99,10.0,ENE,9.2,-,N/A,,Partly Cloudy,60,2013-01-10 08:53:00
11:53 PM,73.0,64.0,73,29.98,10.0,NE,11.5,-,N/A,,Partly Cloudy,50,2013-01-10 09:53:00